Lapse_Rate
4.3 4.3 4.4 4.5 5.8 6.4 6.5 6.5 6.6 6.8 6.0 6.2 5.8 5.8 5.8 5.8 6.1 6.0 5.5 5.3 5.1 5.1 5.5 5.1 4.8 4.5 5.0
5.1 4.6 4.7 4.9 5.9 6.2 6.2 6.5 6.9 7.3 6.6 5.4 5.9 5.9 5.8 6.0 5.7 5.7 5.6 4.9 5.9 5.9 5.8 5.3 4.8 4.9 5.4
5.0 4.8 5.1 5.6 6.1 6.2 6.3 6.6 7.0 7.5 7.0 6.6 5.6 6.1 5.8 5.9 6.0 5.7 5.9 5.7 5.8 6.4 6.2 5.7 5.4 5.3 5.2
4.9 4.9 5.0 5.7 6.1 6.2 6.4 6.3 6.8 7.3 7.3 6.6 6.6 5.6 5.8 5.7 5.7 5.7 5.7 6.0 6.0 6.0 5.9 5.6 5.7 5.6 5.4
5.0 4.9 5.2 5.7 6.2 6.5 6.6 6.6 6.5 6.6 6.5 5.7 6.0 5.8 5.9 5.8 5.8 5.6 5.6 5.7 5.9 6.2 6.1 5.9 5.8 5.3 5.2
5.2 5.2 5.2 5.4 6.0 6.6 6.6 6.6 6.7 6.3 6.0 6.1 6.1 5.9 5.9 6.0 6.0 5.7 5.9 5.8 5.7 6.1 6.3 6.1 5.8 5.9 5.4
5.1 5.2 5.3 5.1 5.5 6.2 6.6 6.6 6.6 6.4 6.3 6.2 6.2 6.0 5.9 5.9 5.9 5.9 5.8 5.8 5.9 5.9 6.0 6.1 6.2 6.0 5.9
5.0 5.1 5.1 5.1 5.0 5.6 6.1 6.5 6.4 6.5 6.4 6.3 6.0 5.9 5.8 5.7 5.9 6.0 5.9 5.9 5.9 6.0 6.1 6.1 6.2 6.1 6.0
4.9 5.0 5.1 5.2 5.0 5.0 5.5 5.9 6.3 6.4 6.2 5.9 5.9 5.7 5.8 5.9 5.8 6.0 5.9 5.8 5.8 5.8 6.0 6.5 6.7 6.7 6.5
5.2 5.2 5.1 5.2 5.2 5.0 4.9 5.2 5.7 6.0 6.3 6.2 6.2 6.1 5.9 5.8 6.0 6.0 6.0 5.9 5.8 5.8 6.1 6.1 6.0 6.3 6.5
5.3 5.3 5.3 5.1 5.2 5.3 5.1 5.0 5.1 5.5 6.0 6.0 6.2 6.2 6.2 6.2 6.3 6.2 6.2 6.3 6.2 6.1 5.9 5.9 6.2 6.0 5.9
5.7 5.4 5.2 5.1 5.0 5.1 5.1 4.8 4.9 5.0 5.1 5.5 5.9 6.2 6.4 6.4 6.4 6.4 6.2 6.5 6.3 6.2 6.2 6.0 5.9 6.0 5.8
5.8 5.7 5.3 4.9 4.8 4.8 5.0 5.2 4.9 4.5 4.4 4.3 5.0 5.2 5.5 5.9 6.1 6.4 6.2 6.1 6.1 5.9 5.9 6.0 6.1 6.0 6.1
5.9 5.5 5.5 5.5 5.4 5.3 5.2 5.1 5.3 4.9 4.4 4.3 4.3 4.9 5.3 5.6 5.6 5.8 5.9 5.9 6.0 6.0 6.1 6.0 6.0 5.8 5.8
5.0 5.3 5.2 5.4 5.2 5.3 5.1 5.0 4.9 4.8 4.5 4.7 4.7 4.6 4.8 4.9 5.1 5.2 5.2 5.4 5.3 5.2 5.4 5.7 5.7 5.7 5.6
5.0 5.1 5.1 5.0 5.1 5.2 5.2 4.9 4.9 4.7 4.7 4.5 4.6 4.5 4.5 4.7 4.7 4.7 4.9 4.8 4.7 4.8 5.1 5.3 5.5 5.4 5.3
4.8 5.0 5.1 5.1 5.0 5.0 5.0 4.9 4.8 4.7 4.6 4.5 4.5 4.4 4.2 4.2 4.2 4.3 4.3 4.3 4.3 4.4 4.6 4.8 4.7 4.7 5.1
Wind_Speed
7 9 8 9 11 10 11 7 8 12 10 10 14 24 24 20 22 23 29 25 24 26 25 25 21 26 25
12 9 8 9 9 9 10 8 7 12 12 7 6 20 25 23 21 23 23 22 21 24 26 24 29 27 26
13 7 6 5 8 7 7 8 7 12 13 11 8 13 22 20 20 21 22 22 21 20 24 25 26 31 33
9 9 5 6 4 8 6 4 6 6 7 7 6 9 16 15 17 17 18 18 19 20 20 19 19 20 20
10 10 8 5 5 4 6 8 6 4 3 3 3 6 7 10 8 11 16 17 16 16 16 16 15 15 16
7 9 12 10 3 4 6 5 3 3 3 5 5 6 8 2 5 11 14 12 13 12 12 11 12 13 14
9 9 7 4 7 6 3 3 4 3 4 3 2 3 4 5 7 6 5 6 7 6 5 8 10 10 12
4 3 3 5 5 7 8 5 4 1 4 2 4 3 3 4 15 15 16 14 10 8 7 3 2 7 9
5 6 6 9 10 4 2 3 2 1 4 2 2 1 2 2 5 14 15 15 13 12 11 9 7 5 5
3 4 6 7 10 6 4 1 2 2 3 2 2 1 1 1 2 2 2 10 10 9 9 8 9 3 2
2 2 2 4 4 5 5 4 2 1 4 3 2 1 1 0 1 1 1 1 2 3 4 3 6 3 1
2 2 2 2 3 3 4 3 2 2 4 3 1 2 2 1 1 1 1 2 2 1 0 1 1 1 3
3 2 2 2 3 3 2 2 2 2 3 3 2 2 1 2 3 2 2 1 1 1 1 2 2 1 1
3 2 2 2 2 3 3 3 1 1 0 2 2 2 2 1 1 2 1 3 2 2 2 2 2 3 3
2 2 2 3 2 1 1 1 2 2 3 1 2 3 4 4 2 2 2 1 2 2 2 2 2 4 4
2 2 2 2 3 2 1 1 1 1 1 2 2 3 3 1 6 1 2 1 1 2 2 3 4 4 3
2 1 2 2 3 2 2 1 2 2 1 1 2 2 2 2 2 8 2 1 1 3 2 2 5 5 4
Wind_Direction
271 276 271 273 284 283 281 275 261 237 229 281 303 281 257 231 216 209 208 208 204 216 221 227 231 234 221
287 282 264 267 267 273 280 277 267 252 226 233 285 295 273 241 220 215 214 211 217 217 222 224 228 236 235
285 279 273 263 280 273 263 275 272 249 233 249 253 281 274 250 233 220 220 208 208 217 225 226 229 229 233
284 288 263 278 262 280 285 272 280 261 233 219 222 261 262 239 231 220 215 216 218 218 222 227 230 233 235
287 294 294 293 280 284 272 286 281 255 256 251 234 245 266 257 249 226 222 213 213 217 220 224 229 234 238
283 287 295 295 322 317 290 288 301 311 289 264 224 227 231 228 270 229 214 215 219 220 218 223 236 236 239
279 279 293 337 323 296 317 315 287 342 322 279 348 64 69 42 18 83 164 196 198 210 225 232 239 239 241
282 334 336 337 308 294 299 288 270 74 5 291 8 44 70 54 62 72 72 72 82 88 88 85 243 245 252
34 12 348 354 351 311 314 314 290 3 12 337 18 5 30 52 52 69 83 87 79 83 76 65 61 60 64
320 341 350 351 7 9 339 291 297 307 6 321 350 26 27 27 56 36 62 79 82 67 66 67 45 35 22
329 357 11 3 3 6 356 348 332 276 360 346 324 316 71 279 64 14 33 29 75 63 37 83 68 52 2
338 360 3 13 349 341 348 358 8 338 342 1 332 342 330 332 285 2 2 53 70 343 233 101 355 318 196
4 352 327 304 312 324 291 275 281 341 352 360 16 357 6 342 338 337 341 352 306 235 7 344 326 297 290
330 318 315 320 1 346 354 338 304 340 130 340 351 28 351 280 223 307 300 322 0 333 322 315 305 292 266
305 339 332 317 327 315 321 316 345 354 332 341 311 270 221 196 305 230 243 290 298 303 340 288 285 280 276
319 339 348 327 307 313 304 323 310 315 314 324 327 345 336 304 194 248 327 259 299 320 291 302 296 281 273
299 286 312 311 327 307 312 321 317 305 292 306 327 2 7 326 312 196 182 263 309 316 264 276 297 287 278